# Personagem Tipo Motivo Tempo Data
1FlorzinhaaChat GlobalAnuncio de Venda de Personagens24h02/08/2021 as 21:39:05
2BlaackkCharAproveitando de BugsPerm02/08/2021 as 10:30:02
3VenutoASCharAproveitando de BugsPerm02/08/2021 as 10:30:02
4DonaBentaCharAproveitando de BugsPerm02/08/2021 as 10:30:02
5WhiteHorseCharAproveitando de BugsPerm02/08/2021 as 10:30:02
6UFCCharAproveitando de BugsPerm02/08/2021 as 10:30:02
7ReiDasTiasCharAproveitando de BugsPerm02/08/2021 as 10:30:02
8ImperatrizCharAproveitando de BugsPerm02/08/2021 as 10:30:02
9CEBOLINHACharAproveitando de BugsPerm02/08/2021 as 10:30:02
10MagnetoCharAproveitando de BugsPerm02/08/2021 as 10:30:02
11TakumaCharAproveitando de BugsPerm02/08/2021 as 10:30:02
12VenutoMGCharAproveitando de BugsPerm02/08/2021 as 10:30:02
13BittermanCharAproveitando de BugsPerm02/08/2021 as 10:30:02
14LunnaCharAproveitando de BugsPerm02/08/2021 as 10:30:02
15LZCharAproveitando de BugsPerm02/08/2021 as 10:30:02
16gOrdeliciaCharAproveitando de BugsPerm02/08/2021 as 10:30:02
17BelvedereCharAproveitando de BugsPerm02/08/2021 as 10:30:02
18VisionCharAproveitando de BugsPerm02/08/2021 as 10:30:02
19TequilisabitchCharAproveitando de BugsPerm02/08/2021 as 10:30:02
20KonCharAproveitando de BugsPerm02/08/2021 as 10:30:02
21BarbaNegraCharAproveitando de BugsPerm02/08/2021 as 10:30:02
22PsRoxChat GlobalAnuncio de Venda de Personagens12h26/07/2021 as 19:27:30
23UrantiaChat Global + SalinhaOfensas no Global24h26/07/2021 as 19:24:54
24TýrAlertaKSA126/07/2021 as 16:34:05
251000utilidadesSSalinhaOfensas a jogadores24h22/07/2021 as 22:55:01
26VideirinhaaSalinhaOfensas a jogadores24h21/07/2021 as 17:01:00
27HuGSalinhaOfensas a jogadores24h21/07/2021 as 17:01:00
28HiyoriSalinhaOfensas a jogadores24h21/07/2021 as 17:01:00
29XamaNoPaiSalinhaOfensas a jogadores24h21/07/2021 as 17:01:00
30VideirinhaMGSSalinhaOfensas a jogadores24h21/07/2021 as 17:01:00
31VideirinhaXMSalinhaOfensas a jogadores24h21/07/2021 as 17:01:00
32ROLETADOOOOOOORSalinhaOfensas a jogadores24h21/07/2021 as 17:01:00
33MegaZorDSalinhaOfensas a jogadores24h21/07/2021 as 17:01:00
34AngelTrevasSalinhaOfensas a jogadores24h21/07/2021 as 17:01:00
35MayconSalinhaOfensas a jogadores24h21/07/2021 as 17:01:00
36HuGSalinhaOfensas a jogadores24h21/07/2021 as 17:01:00
37ShitsukiChat GlobalAnuncio de Venda de Personagens24h20/07/2021 as 23:37:20
38TequitIsABitchSalinhaOfensas a jogadores24h17/07/2021 as 17:52:43
39MegaZorDChat GlobalAcusacao sem provas24h16/07/2021 as 12:22:43
40MegaZorDSalinhaOfensas a jogadores24h16/07/2021 as 09:26:02
41PAPACAPIMChat GlobalOfensas no Global24h15/07/2021 as 15:36:00
42FuleirinhaChat GlobalOfensas no Global24h15/07/2021 as 15:25:31
43TUFAOChat GlobalOfensas no Global24h15/07/2021 as 15:23:59
44TJmitoChat GlobalOfensas no Global24h15/07/2021 as 15:22:22
45FERREIRAChat GlobalOfensas no Global24h15/07/2021 as 15:22:06
46Furios0Chat GlobalOfensas no Global24h15/07/2021 as 15:21:49
47PastaBaseChat GlobalOfensas no Global24h15/07/2021 as 09:10:40
48VideirinhaMGSChat GlobalOfensas no Global24h15/07/2021 as 09:10:05
49petelecoChat GlobalOfensas no Global24h15/07/2021 as 09:09:37
50OhYeahChat GlobalOfensas no Global24h15/07/2021 as 09:09:11
51iVettersyChat GlobalOfensas no Global24h15/07/2021 as 09:08:59
52WanessaWolfChat GlobalOfensas no Global24h15/07/2021 as 09:08:23
53JAAAAAAYMEChat GlobalOfensas no Global24h15/07/2021 as 09:08:07
54XamaNoPaiChat GlobalOfensas no Global24h15/07/2021 as 09:06:33
55BacoChat GlobalOfensas no Global24h15/07/2021 as 09:06:11
56HiyoriChat GlobalOfensas no Global24h15/07/2021 as 09:05:13
57ADCChat GlobalOfensas no Global24h15/07/2021 as 09:05:02
58VideirinhaAChat GlobalOfensas no Global24h15/07/2021 as 09:03:49
59PrsVideirinhAChat GlobalOfensas no Global24h15/07/2021 as 09:03:25
60VIDEIRINHAAAAAAChat GlobalOfensas no Global24h15/07/2021 as 09:02:55
61WhiteHorseChat GlobalAcusacao sem Provas24h15/07/2021 as 09:01:16
62AZARADAChat GlobalAcusacao sem Provas24h15/07/2021 as 09:01:00
63KINAMANCOOOOOOOChat GlobalAcusacao sem Provas72h15/07/2021 as 09:00:41
64vaitomarnocuChat GlobalTumulto24h04/07/2021 as 15:40:11
65eosnewordenChat GlobalTumulto24h04/07/2021 as 15:40:03
66BrotaEmLauroChat GlobalFalsas acusacoes24h27/06/2021 as 10:25:08
67DebochadoChat GlobalXingamento no Global24h26/06/2021 as 16:59:38
68CocoDeMeninaChat GlobalOfensas no Global24h22/06/2021 as 22:07:52
69TJmitoChat GlobalOfensas no Global24h22/06/2021 as 20:46:38
70DidicoMalucoContaOfensas a StaffPerm21/06/2021 as 21:01:00
71DidicoMalucoSalinhaOfensa no Global72h21/06/2021 as 20:54:30
72MeKnowChat GlobalOfensa no Global24h19/06/2021 as 10:46:48
73Mandrak4Chat GlobalOfensa no Global24h19/06/2021 as 10:46:28
74MATAMILChat GlobalOfensa no Global24h19/06/2021 as 10:46:22
75AveMariaChat GlobalOfensa no Global24h19/06/2021 as 10:46:08
76DidicoMalucoSalinhaOfensas no Global24h18/06/2021 as 14:33:25
77HokageChat GlobalTumultuo no Global24h12/06/2021 as 23:31:01
78MessimaniacoChat GlobalTumultuo no Global24h12/06/2021 as 23:25:03
79CuleChat GlobalTumultuo no Global24h12/06/2021 as 23:23:40
80KINAMANCOOOOOOOSalinhaFalsa acusação + Ofensas24h12/06/2021 as 05:16:24
81SteinSalinhaOfensas no Global12h12/06/2021 as 05:09:43
82MessiSalinhaOfensas no Global24h12/06/2021 as 05:08:36
83ChronicCharKS + Racismo72h11/06/2021 as 09:30:22
84NotuZChat Global.4h10/06/2021 as 22:48:37
85123PulinhoCharTentativa de Golpe de XPPerma10/06/2021 as 15:22:08
86KoberChat GlobalOfensas no Global24h09/06/2021 as 20:04:09
87xTiilbaChat GlobalOfensa no Global24h09/06/2021 as 17:50:37
88LekdoMeteoroChat GlobalFalsas acusacoes24h09/06/2021 as 01:25:29
89XxgalocinzaxXAlertaOfensa no Chat todosAlerta03/06/2021 as 18:12:33
90OXENT3Chat GlobalAcusacao sem Provas24h02/06/2021 as 21:36:56
91CharlieBrownJRSalinhaOfenças no Global24h01/06/2021 as 21:28:17
92CrowleySalinhaOfenças no Chat24h31/05/2021 as 08:34:32
93SalinhaOfensa no Global24h29/05/2021 as 10:59:14
94ElPapiSalinhaEliminação evento pvp24h27/05/2021 as 23:57:33
95ZeDuPiruhSalinhaEliminação evento pvp24h27/05/2021 as 23:57:33
96ElChifreChat GlobalXingamento no Global24h26/05/2021 as 16:46:55
97RajuhChat GlobalXingamento no Global24h26/05/2021 as 16:45:57
98knowChat GlobalOfensas no Global24h24/05/2021 as 16:30:49
99LeoChat GlobalOfensas no Global12h24/05/2021 as 16:30:40
100TeuzmaChat GlobalOfensas no Global24h24/05/2021 as 16:26:31
101BiruleibeeeChat GlobalOfensas no Global24h23/05/2021 as 19:52:23
102Massacrati0nChat Global.4h20/05/2021 as 18:02:35
103ElPapiChat GlobalOfensas no Global24h19/05/2021 as 21:17:38
104DebochadoMesmoChat GlobalOfensas no global24h17/05/2021 as 19:55:53
105PrimoRicoChat GlobalOfensa no Global12h17/05/2021 as 14:48:14
106AveMariaChat GlobalOfensas no Global12h16/05/2021 as 22:52:38
107DuBigodinChat GlobalOfensas no Global4h16/05/2021 as 19:04:35
108ZapChat GlobalOfensas no Global24h16/05/2021 as 18:55:10
109ElPapiChat GlobalOfensas no Global24h15/05/2021 as 18:21:55
110AZARADOChat GlobalOfensas no Global24h15/05/2021 as 18:21:49
111BlaackkChat GlobalOfensas no Global24h15/05/2021 as 18:21:43
112DonaEncrencaChat GlobalOfensas no Global24h15/05/2021 as 18:21:36
113TraxarTChat Global.24h15/05/2021 as 00:18:02
114StarkChat GlobalVenda de Char de outro SV24h05/05/2021 as 21:11:10
115MaeLChat GlobalOfensas no PM24h04/05/2021 as 16:16:19
116AtaParanoiC4Chat GlobalOfensa no Global24h27/04/2021 as 17:34:47
117SargentaChat GlobalXingamento no Global12h25/04/2021 as 08:20:20
118DonaEncrencaChat GlobalOfensa24h24/04/2021 as 08:50:56
119[LK]Chat GlobalOfensaNA17/04/2021 as 12:46:20
120DidicoChat GlobalOfensas no Global12h14/04/2021 as 17:52:22
121DariusChat GlobalXingamento no Global24h13/04/2021 as 17:59:33
122IronFirstChatXingamentoNA13/04/2021 as 17:48:53
123ElPapiBloqueioMa Conduta35h + Ban PC12/04/2021 as 10:15:31
124BORRACHAChat GlobalXingamento no Global24h10/04/2021 as 21:47:48
125ElPapiChat ClanOfensas no Chat ClanNA06/04/2021 as 22:14:25
126JesusSalinhaBug lost 24h02/04/2021 as 02:15:25
127CostinhaChat GlobalXingamento no Global24h02/04/2021 as 02:14:07
128NervosaChat GlobalTumulto no Global24h02/04/2021 as 02:05:07
129DariusChat GlobalTumultuo no chat24h02/04/2021 as 00:49:46
130XDDDDDDChat GlobalTumultuo no chat24h02/04/2021 as 00:47:41
131lunaChat GlobalPlayer toxico no chat24h24/03/2021 as 14:35:46
132MuleraaaChat GlobalTumulto no Global4h20/03/2021 as 18:57:50